THOR ABLESTAR DEB, 152

Orbit data source: Space-Track

THOR ABLESTAR DEB, 152 is space debris in LEO originally from a launch on Thu, 29 Jun 1961 UTC launched from the Air Force Eastern Test Range (AFETR). Debris objects in space refer to the collection of defunct objects orbiting the Earth. Examples of debris include non-operational satellites, rocket bodies, and fragments generated from explosions, collisions, or faulty payload assembly.

Loading next visibility...
Identifier
152, 1961-015AN
Orbit
LEO
Last TLE update
1 day ago
Origin
Manufacturer
Unknown
Mission
Spacecraft
Bus & Motor
Unknown
Mass
Unknown
Launch date (UTC)
1961-06-29 (64 years ago)
Launch vehicle
Unknown
Launch site
Air Force Eastern Test Range (AFETR)
Object type
Payload
Rocket body
Debris
Shape & HBR
Unknown
Radar Cross Section
Medium (>0.1 m² and <1 m²)

Expand to show TLE details & history

TLE from 1 day ago
0 THOR ABLESTAR DEB
1 00152U 61015AN  25200.07050504  .00000419  00000-0  25224-3 0  9993
2 00152  66.5936  88.5066 0143549  61.6761 299.8721 14.11169799279072
Epoch: 2025-07-19T01:41Z
TLE epoch observation values (Epoch: 2025-07-19T01:41:31.635Z)
Latitude
0.00001°
Longitude
126.0119°
Altitude
806.861 km
Speed
7.476 km/s
True Right ascension
05h 54m 01s
True Declination
0° 00' 00"
Sunlit
Object was in daylight at epoch
Visualization orbit readout
Latitude
34.92732°
Longitude
140.06095°
Altitude
762.843 km
Speed
7.526 km/s
Apparent Right ascension
08h 44m 42s
Apparent Declination
0° 01' 04"
Sunlit
Object is in daylight
Visualization observer readout
Local Sidereal Time
23:04:34
Azimuth
47.474° ENE
Elevation
-38.957°
Doppler factor
1
Orbital elements
Apogee altitude
957.586 km
Perigee altitude
749.959 km
Semi-major axis
7,231.91 km
Eccentricity
0.01435
Inclination
66.5936°
RAAN
88.5066°
Arg. of periapsis
61.6761°
True anomaly
298.43299°
Mean anomaly
299.8721°
Eccentric anomaly
299.15382°
Mean motion
3.5291 °/min
Orbital period
102.01 mins
BSTAR
0.00025224
Loading maneuver chart data...
Loading SW <> Apogee altitude chart data...
|